H1 CPF 2 NER 2023 4 17 9 107 01 glonass140 H2 1903001 9140 44299 2023 4 17 0 0 0 2023 4 20 23 45 0 900 1 1 0 0 0 1 H9 10 0 60051 0.00000 0 -21204418.171 -3309377.157 13821279.668 10 0 60051 900.00000 0 -22645040.728 -3852658.986 11130364.468 10 0 60051 1800.00000 0 -23799870.663 -4167140.132 8223664.336 10 0 60051 2700.00000 0 -24623609.636 -4288590.311 5157489.667 10 0 60051 3600.00000 0 -25081182.682 -4260975.263 1991272.174 10 0 60051 4500.00000 0 -25149215.942 -4134354.443 -1213581.130 10 0 60051 5400.00000 0 -24817045.812 -3962522.287 -4394875.182 10 0 60051 6300.00000 0 -24087216.211 -3800492.769 -7490832.487 10 0 60051 7200.00000 0 -22975441.918 -3701933.775 -10441293.584 10 0 60051 8100.00000 0 -21510038.273 -3716660.270 -13188888.777 10 0 60051 9000.00000 0 -19730839.909 -3888293.059 -15680157.971 10 0 60051 9900.00000 0 -17687652.759 -4252183.163 -17866596.294 10 0 60051 10800.00000 0 -15438303.246 -4833690.833 -19705604.688 10 0 60051 11700.00000 0 -13046365.575 -5646893.399 -21161326.474 10 0 60051 12600.00000 0 -10578661.682 -6693778.108 -22205353.101 10 0 60051 13500.00000 0 -8102638.036 -7963955.685 -22817284.942 10 0 60051 14400.00000 0 -5683728.624 -9434908.389 -22985135.782 10 0 60051 15300.00000 0 -3382814.217 -11072763.666 -22705572.701 10 0 60051 16200.00000 0 -1253883.864 -12833562.250 -21983986.289 10 0 60051 17100.00000 0 658003.835 -14664968.550 -20834389.419 10 0 60051 18000.00000 0 2318374.752 -16508352.200 -19279146.204 10 0 60051 18900.00000 0 3704539.859 -18301153.796 -17348536.143 10 0 60051 19800.00000 0 4806292.927 -19979435.527 -15080161.789 10 0 60051 20700.00000 0 5626077.036 -21480509.313 -12518211.527 10 0 60051 21600.00000 0 6178614.274 -22745531.559 -9712592.088 10 0 60051 22500.00000 0 6490015.750 -23721954.897 -6717948.154 10 0 60051 23400.00000 0 6596411.249 -24365733.235 -3592588.937 10 0 60051 24300.00000 0 6542158.268 -24643186.948 -397343.504 10 0 60051 25200.00000 0 6377708.021 -24532449.511 2805631.842 10 0 60051 26100.00000 0 6157220.446 -24024434.798 5954069.853 10 0 60051 27000.00000 0 5936030.733 -23123284.738 8986807.740 10 0 60051 27900.00000 0 5768075.778 -21846279.140 11844977.393 10 0 60051 28800.00000 0 5703390.331 -20223212.249 14473146.849 10 0 60051 29700.00000 0 5785779.104 -18295263.047 16820390.939 10 0 60051 30600.00000 0 6050763.251 -16113407.327 18841270.710 10 0 60051 31500.00000 0 6523887.612 -13736438.457 20496703.442 10 0 60051 32400.00000 0 7219459.632 -11228679.662 21754707.506 10 0 60051 33300.00000 0 8139772.541 -8657482.874 22591008.922 10 0 60051 34200.00000 0 9274845.110 -6090617.601 22989499.209 10 0 60051 35100.00000 0 10602688.757 -3593657.226 22942536.908 10 0 60051 36000.00000 0 12090091.061 -1227469.815 22451087.966 10 0 60051 36900.00000 0 13693883.419 954084.059 21524702.955 10 0 60051 37800.00000 0 15362640.762 2906152.763 20181331.828 10 0 60051 38700.00000 0 17038743.459 4594512.977 18446979.709 10 0 60051 39600.00000 0 18660716.533 5996741.317 16355209.823 10 0 60051 40500.00000 0 20165749.786 7102890.874 13946502.407 10 0 60051 41400.00000 0 21492294.652 7915645.576 11267480.935 10 0 60051 42300.00000 0 22582630.094 8449946.745 8370019.554 10 0 60051 43200.00000 0 23385290.672 8732107.970 5310247.940 10 0 60051 44100.00000 0 23857255.273 8798455.726 2147471.876 10 0 60051 45000.00000 0 23965804.368 8693552.943 -1056970.190 10 0 60051 45900.00000 0 23689967.249 8468080.383 -4240892.911 10 0 60051 46800.00000 0 23021497.417 8176465.186 -7342469.331 10 0 60051 47700.00000 0 21965333.858 7874356.872 -10301432.189 10 0 60051 48600.00000 0 20539527.410 7616057.746 -13060247.639 10 0 60051 49500.00000 0 18774633.750 7452016.867 -15565238.221 10 0 60051 50400.00000 0 16712597.036 7426494.278 -17767632.678 10 0 60051 51300.00000 0 14405169.639 7575495.209 -19624521.737 10 0 60051 52200.00000 0 11911933.004 7925062.701 -21099700.738 10 0 60051 53100.00000 0 9298001.501 8490002.083 -22164382.211 10 0 60051 54000.00000 0 6631504.578 9273092.495 -22797764.105 10 0 60051 54900.00000 0 3980951.848 10264820.191 -22987442.161 10 0 60051 55800.00000 0 1412590.811 11443646.148 -22729657.990 10 0 60051 56700.00000 0 -1012132.762 12776797.990 -22029377.639 10 0 60051 57600.00000 0 -3238906.013 14221553.894 -20900198.689 10 0 60051 58500.00000 0 -5222574.633 15726965.166 -19364087.374 10 0 60051 59400.00000 0 -6928778.721 17235945.433 -17450950.548 10 0 60051 60300.00000 0 -8335131.073 18687638.653 -15198050.687 10 0 60051 61200.00000 0 -9431889.354 20019966.005 -12649275.357 10 0 60051 62100.00000 0 -10222095.173 21172243.993 -9854275.621 10 0 60051 63000.00000 0 -10721175.647 22087762.854 -6867490.634 10 0 60051 63900.00000 0 -10956025.951 22716215.928 -3747078.176 10 0 60051 64800.00000 0 -10963613.412 23015876.984 -553772.850 10 0 60051 65700.00000 0 -10789164.049 22955433.273 2650304.824 10 0 60051 66600.00000 0 -10484010.087 22515396.830 5802864.172 10 0 60051 67500.00000 0 -10103191.210 21689034.613 8842660.404 10 0 60051 68400.00000 0 -9702912.423 20482778.645 11710686.602 10 0 60051 69300.00000 0 -9337967.089 18916099.399 14351318.068 10 0 60051 70200.00000 0 -9059234.650 17020848.338 16713386.836 10 0 60051 71100.00000 0 -8911358.877 14840097.713 18751165.906 10 0 60051 72000.00000 0 -8930704.378 12426526.575 20425244.880 10 0 60051 72900.00000 0 -9143676.938 9840420.525 21703281.153 10 0 60051 73800.00000 0 -9565477.710 7147368.321 22560613.395 10 0 60051 74700.00000 0 -10199342.949 4415750.599 22980726.767 10 0 60051 75600.00000 0 -11036300.641 1714123.996 22955562.169 10 0 60051 76500.00000 0 -12055454.017 -891392.125 22485664.521 10 0 60051 77400.00000 0 -13224780.116 -3339619.561 21580167.949 10 0 60051 78300.00000 0 -14502410.432 -5576613.732 20256618.458 10 0 60051 79200.00000 0 -15838340.836 -7557651.396 18540637.402 10 0 60051 80100.00000 0 -17176500.227 -9248832.807 16465431.786 10 0 60051 81000.00000 0 -18457092.486 -10628233.191 14071160.037 10 0 60051 81900.00000 0 -19619114.785 -11686556.844 11404164.513 10 0 60051 82800.00000 0 -20602947.707 -12427267.453 8516084.461 10 0 60051 83700.00000 0 -21352909.219 -12866189.828 5462865.551 10 0 60051 84600.00000 0 -21819665.647 -13030600.051 2303684.165 10 0 60051 85500.00000 0 -21962398.229 -12957842.389 -900193.379 10 0 60052 0.00000 0 -21750633.679 -12693531.161 -4086594.770 10 0 60052 900.00000 0 -21165660.645 -12289413.122 -7193647.727 10 0 60052 1800.00000 0 -20201471.543 -11800980.957 -10160980.368 10 0 60052 2700.00000 0 -18865188.229 -11284938.265 -12930898.006 10 0 60052 3600.00000 0 -17176952.121 -10796623.774 -15449508.870 10 0 60052 4500.00000 0 -15169281.608 -10387503.992 -17667778.033 10 0 60052 5400.00000 0 -12885922.025 -10102840.919 -19542488.268 10 0 60052 6300.00000 0 -10380234.861 -9979634.215 -21037088.643 10 0 60052 7200.00000 0 -7713192.337 -10044925.677 -22122413.835 10 0 60052 8100.00000 0 -4951060.104 -10314538.673 -22777259.725 10 0 60052 9000.00000 0 -2162864.047 -10792306.810 -22988803.668 10 0 60052 9900.00000 0 582253.674 -11469825.432 -22752860.799 10 0 60052 10800.00000 0 3217679.412 -12326737.402 -22073971.008 10 0 60052 11700.00000 0 5681863.678 -13331541.947 -20965314.457 10 0 60052 12600.00000 0 7920641.996 -14442893.077 -19448456.961 10 0 60052 13500.00000 0 9889244.411 -15611333.180 -17552929.857 10 0 60052 14400.00000 0 11553910.084 -16781388.777 -15315652.420 10 0 60052 15300.00000 0 12893040.041 -17893939.803 -12780208.079 10 0 60052 16200.00000 0 13897840.689 -18888761.963 -9995988.780 10 0 60052 17100.00000 0 14572432.345 -19707134.233 -7017224.637 10 0 60052 18000.00000 0 14933419.703 -20294400.591 -3901918.491 10 0 60052 18900.00000 0 15008944.123 -20602377.091 -710707.057 10 0 60052 19800.00000 0 14837259.588 -20591501.964 2494328.197 10 0 60052 20700.00000 0 14464894.432 -20232637.514 5650876.177 10 0 60052 21600.00000 0 13944478.285 -19508447.562 8697612.771 10 0 60052 22500.00000 0 13332327.702 -18414292.390 11575394.553 10 0 60052 23400.00000 0 12685893.716 -16958603.729 14228405.943 10 0 60052 24300.00000 0 12061179.911 -15162724.399 16605237.576 10 0 60052 25200.00000 0 11510240.336 -13060219.662 18659875.331 10 0 60052 26100.00000 0 11078862.573 -10695689.448 20352581.599 10 0 60052 27000.00000 0 10804533.052 -8123131.128 21650652.818 10 0 60052 27900.00000 0 10714769.347 -5403920.859 22529039.897 10 0 60052 28800.00000 0 10825888.631 -2604496.967 22970820.860 10 0 60052 29700.00000 0 11142263.037 206159.341 22967517.819 10 0 60052 30600.00000 0 11656092.441 2959142.713 22519253.238 10 0 60052 31500.00000 0 12347703.749 5588234.753 21634743.124 10 0 60052 32400.00000 0 13186364.072 8032401.004 20331127.654 10 0 60052 33300.00000 0 14131574.034 10238072.077 18633642.393 10 0 60052 34200.00000 0 15134787.649 12161115.944 16575135.972 10 0 60052 35100.00000 0 16141487.561 13768421.030 14195442.779 10 0 60052 36000.00000 0 17093529.575 15039025.502 11540621.733 10 0 60052 36900.00000 0 17931659.025 15964746.640 8662074.797 10 0 60052 37800.00000 0 18598094.002 16550284.676 5615561.190 10 0 60052 38700.00000 0 19039067.325 16812797.110 2460125.414 10 0 60052 39600.00000 0 19207220.329 16780961.459 -743040.821 10 0 60052 40500.00000 0 19063747.361 16493565.815 -3931781.225 10 0 60052 41400.00000 0 18580199.825 15997686.376 -7044179.362 10 0 60052 42300.00000 0 17739872.618 15346528.643 -10019761.424 10 0 60052 43200.00000 0 16538713.028 14597023.295 -12800673.776 10 0 60052 44100.00000 0 14985712.052 13807278.283 -15332811.961 10 0 60052 45000.00000 0 13102759.801 13033994.957 -17566878.722 10 0 60052 45900.00000 0 10923969.142 12329957.714 -19459349.949 10 0 60052 46800.00000 0 8494494.086 11741703.690 -20973329.262 10 0 60052 47700.00000 0 5868890.799 11307471.520 -22079274.075 10 0 60052 48600.00000 0 3109088.366 11055516.443 -22755578.592 10 0 60052 49500.00000 0 282052.938 11002863.591 -22989001.932 10 0 60052 50400.00000 0 -2542758.042 11154552.806 -22774932.650 10 0 60052 51300.00000 0 -5296045.956 11503407.469 -22117484.065 10 0 60052 52200.00000 0 -7911315.352 12030337.658 -21029418.172 10 0 60052 53100.00000 0 -10327402.407 12705165.226 -19531899.242 10 0 60052 54000.00000 0 -12490782.233 13487936.119 -17654081.623 10 0 60052 54900.00000 0 -14357558.940 14330664.494 -15432539.598 10 0 60052 55800.00000 0 -15895055.577 15179434.624 -12910550.415 10 0 60052 56700.00000 0 -17082938.057 15976771.233 -10137244.697 10 0 60052 57600.00000 0 -17913826.843 16664177.312 -7166641.203 10 0 60052 58500.00000 0 -18393371.927 17184731.232 -4056585.488 10 0 60052 59400.00000 0 -18539789.464 17485632.413 -867614.033 10 0 60052 60300.00000 0 -18382881.346 17520587.074 2338233.055 10 0 60052 61200.00000 0 -17962580.919 17251932.482 5498626.550 10 0 60052 62100.00000 0 -17327088.058 16652409.517 8552165.266 10 0 60052 63000.00000 0 -16530674.055 15706508.476 11439571.474 10 0 60052 63900.00000 0 -15631250.352 14411331.379 14104840.879 10 0 60052 64800.00000 0 -14687804.739 12776934.648 16496324.810 10 0 60052 65700.00000 0 -13757813.600 10826137.938 18567724.013 10 0 60052 66600.00000 0 -12894739.234 8593807.360 20278975.507 10 0 60052 67500.00000 0 -12145717.099 6125643.042 21597016.424 10 0 60052 68400.00000 0 -11549529.306 3476521.414 22496411.330 10 0 60052 69300.00000 0 -11134948.374 708460.692 22959832.235 10 0 60052 70200.00000 0 -10919519.475 -2111706.720 22978383.281 10 0 60052 71100.00000 0 -10908831.090 -4914859.550 22551764.915 10 0 60052 72000.00000 0 -11096303.695 -7632207.396 21688275.067 10 0 60052 72900.00000 0 -11463504.697 -10197897.975 20404647.709 10 0 60052 73800.00000 0 -11980976.202 -12551505.532 18725731.785 10 0 60052 74700.00000 0 -12609541.044 -14640298.849 16684016.285 10 0 60052 75600.00000 0 -13302032.787 -16421196.209 14319009.849 10 0 60052 76500.00000 0 -14005377.742 -17862327.340 11676485.864 10 0 60052 77400.00000 0 -14662942.345 -18944138.190 8807606.560 10 0 60052 78300.00000 0 -15217047.845 -19659993.127 5767941.968 10 0 60052 79200.00000 0 -15611547.033 -20016249.703 2616401.740 10 0 60052 80100.00000 0 -15794354.614 -20031802.903 -585900.181 10 0 60052 81000.00000 0 -15719824.406 -19737117.925 -3776826.529 10 0 60052 81900.00000 0 -15350872.495 -19172791.872 -6894420.656 10 0 60052 82800.00000 0 -14660755.758 -18387704.657 -9878109.966 10 0 60052 83700.00000 0 -13634429.367 -17436836.800 -12669885.259 10 0 60052 84600.00000 0 -12269424.313 -16378845.977 -15215432.666 10 0 60052 85500.00000 0 -10576206.083 -15273504.533 -17465195.658 10 0 60053 0.00000 0 -8577997.565 -14179106.290 -19375345.803 10 0 60053 900.00000 0 -6310070.436 -13149951.684 -20908643.874 10 0 60053 1800.00000 0 -3818535.563 -12234019.130 -22035171.536 10 0 60053 2700.00000 0 -1158677.816 -11470919.239 -22732922.373 10 0 60053 3600.00000 0 1607093.968 -10890220.084 -22988237.667 10 0 60053 4500.00000 0 4411598.381 -10510213.906 -22796079.119 10 0 60053 5400.00000 0 7185436.732 -10337177.749 -22160132.598 10 0 60053 6300.00000 0 9859646.192 -10365159.419 -21092740.492 10 0 60053 7200.00000 0 12368340.395 -10576297.916 -19614663.601 10 0 60053 8100.00000 0 14651227.487 -10941664.736 -17754676.922 10 0 60053 9000.00000 0 16655900.569 -11422590.225 -15549006.991 10 0 60053 9900.00000 0 18339804.947 -11972418.428 -13040621.774 10 0 60053 10800.00000 0 19671800.169 -12538615.535 -10278387.152 10 0 60053 11700.00000 0 20633251.973 -13065141.813 -7316106.852 10 0 60053 12600.00000 0 21218609.184 -13494985.617 -4211465.302 10 0 60053 13500.00000 0 21435442.485 -13772751.147 -1024894.835 10 0 60053 14400.00000 0 21303944.956 -13847189.377 2181609.652 10 0 60053 15300.00000 0 20855917.069 -13673564.156 5345704.453 10 0 60053 16200.00000 0 20133280.704 -13215752.701 8405914.640 10 0 60053 17100.00000 0 19186186.569 -12447991.261 11302831.084 10 0 60053 18000.00000 0 18070796.300 -11356192.075 13980263.168 10 0 60053 18900.00000 0 16846833.894 -9938776.076 16386324.772 10 0 60053 19800.00000 0 15575010.279 -8206986.416 18474432.812 10 0 60053 20700.00000 0 14314429.579 -6184669.723 20204199.705 10 0 60053 21600.00000 0 13120085.752 -3907534.257 21542203.545 10 0 60053 22500.00000 0 12040553.888 -1421915.712 22462622.360 10 0 60053 23400.00000 0 11115971.822 1216898.353 22947721.525 10 0 60053 24300.00000 0 10376395.261 3946716.552 22988186.205 10 0 60053 25200.00000 0 9840593.810 6700780.234 22583293.468 10 0 60053 26100.00000 0 9515336.973 9410292.950 21740921.502 10 0 60053 27000.00000 0 9395198.883 12007039.545 20477396.127 10 0 60053 27900.00000 0 9462889.156 14425987.921 18817177.493 10 0 60053 28800.00000 0 9690095.622 16607767.175 16792392.581 10 0 60053 29700.00000 0 10038803.580 18500920.697 14442221.760 10 0 60053 30600.00000 0 10463036.486 20063841.850 11812150.226 10 0 60053 31500.00000 0 10910945.438 21266312.563 8953097.716 10 0 60053 32400.00000 0 11327160.096 22090581.265 5920442.239 10 0 60053 33300.00000 0 11655302.542 22531935.442 2772955.722 10 0 60053 34200.00000 0 11840558.340 22598744.795 -428328.507 10 0 60053 35100.00000 0 11832196.349 22311972.999 -3621294.980 10 0 60053 36000.00000 0 11585930.454 21704178.166 -6743949.443 10 0 60053 36900.00000 0 11066022.738 20818043.617 -9735622.881 10 0 60053 37800.00000 0 10247038.056 19704500.360 -12538152.610 10 0 60053 38700.00000 0 9115174.411 18420519.978 -15097017.097 10 0 60053 39600.00000 0 7669111.195 17026670.674 -17362401.949 10 0 60053 40500.00000 0 5920337.523 15584539.297 -19290175.802 10 0 60053 41400.00000 0 3892944.725 14154127.958 -20842756.668 10 0 60053 42300.00000 0 1622889.641 12791335.019 -21989851.331 10 0 60053 43200.00000 0 -843242.358 11545626.657 -22709052.971 10 0 60053 44100.00000 0 -3449924.540 10457997.273 -22986284.968 10 0 60053 45000.00000 0 -6134757.018 9559304.759 -22816081.796 10 0 60053 45900.00000 0 -8830830.685 8869050.852 -22201701.148 10 0 60053 46800.00000 0 -11469288.914 8394657.909 -21155064.699 10 0 60053 47700.00000 0 -13981980.505 8131272.468 -19696528.282 10 0 60053 48600.00000 0 -16304093.304 8062103.531 -17854485.684 10 0 60053 49500.00000 0 -18376658.534 8159280.782 -15664813.535 10 0 60053 50400.00000 0 -20148821.072 8385195.785 -13170168.136 10 0 60053 51300.00000 0 -21579780.727 8694268.513 -10419148.122 10 0 60053 52200.00000 0 -22640323.410 9035063.427 -7465339.666 10 0 60053 53100.00000 0 -23313878.383 9352664.284 -4366263.570 10 0 60053 54000.00000 0 -23597058.016 9591205.855 -1182245.612 10 0 60053 54900.00000 0 -23499658.448 9696454.098 2024766.840 10 0 60053 55800.00000 0 -23044122.511 9618324.383 5192417.821 10 0 60053 56700.00000 0 -22264489.105 9313230.283 8259160.799 10 0 60053 57600.00000 0 -21204874.901 8746162.899 11165457.312 10 0 60053 58500.00000 0 -19917553.820 7892412.478 13854932.406 10 0 60053 59400.00000 0 -18460716.398 6738859.516 16275464.381 10 0 60053 60300.00000 0 -16896004.136 5284780.952 18380188.064 10 0 60053 61200.00000 0 -15285922.830 3542137.643 20128392.824 10 0 60053 62100.00000 0 -13691243.282 1535331.041 21486299.043 10 0 60053 63000.00000 0 -12168497.679 -699560.904 22427699.274 10 0 60053 63900.00000 0 -10767675.379 -3116037.123 22934453.041 10 0 60053 64800.00000 0 -9530213.038 -5658864.553 22996827.009 10 0 60053 65700.00000 0 -8487361.479 -8266137.703 22613675.041 10 0 60053 66600.00000 0 -7658995.927 -10871622.335 21792455.440 10 0 60053 67500.00000 0 -7052917.817 -13407287.495 20549085.411 10 0 60053 68400.00000 0 -6664676.130 -15805922.386 18907635.528 10 0 60053 69300.00000 0 -6477914.847 -18003731.047 16899869.647 10 0 60053 70200.00000 0 -6465231.451 -19942798.523 14564638.431 10 0 60053 71100.00000 0 -6589510.325 -21573327.220 11947137.138 10 0 60053 72000.00000 0 -6805675.185 -22855551.241 9098040.994 10 0 60053 72900.00000 0 -7062787.172 -23761249.457 6072533.721 10 0 60053 73800.00000 0 -7306400.592 -24274794.329 2929247.055 10 0 60053 74700.00000 0 -7481077.267 -24393692.495 -270868.940 10 0 60053 75600.00000 0 -7532953.441 -24128594.110 -3465723.390 10 0 60053 76500.00000 0 -7412250.570 -23502770.016 -6593287.369 10 0 60053 77400.00000 0 -7075623.348 -22551078.042 -9592798.475 10 0 60053 78300.00000 0 -6488244.739 -21318461.275 -12405943.634 10 0 60053 79200.00000 0 -5625538.632 -19858040.859 -14977996.742 10 0 60053 80100.00000 0 -4474485.286 -18228883.082 -17258888.521 10 0 60053 81000.00000 0 -3034442.642 -16493534.323 -19204187.306 10 0 60053 81900.00000 0 -1317446.792 -14715427.339 -20775971.149 10 0 60053 82800.00000 0 652023.073 -12956267.826 -21943573.793 10 0 60053 83700.00000 0 2837807.477 -11273511.107 -22684189.549 10 0 60053 84600.00000 0 5193327.106 -9718034.993 -22983324.869 10 0 60053 85500.00000 0 7663289.712 -8332106.605 -22835087.412 10 0 60054 0.00000 0 10185773.150 -7147728.672 -22242306.635 10 0 60054 900.00000 0 12694599.776 -6185434.027 -21216482.738 10 0 60054 1800.00000 0 15121900.144 -5453580.265 -19777565.479 10 0 60054 2700.00000 0 17400763.618 -4948171.632 -17953565.820 10 0 60054 3600.00000 0 19467861.749 -4653216.603 -15780008.408 10 0 60054 4500.00000 0 21265935.817 -4541604.449 -13299235.353 10 0 60054 5400.00000 0 22746044.016 -4576462.812 -10559575.079 10 0 60054 6300.00000 0 23869473.989 -4712937.583 -7614392.843 10 0 60054 7200.00000 0 24609240.551 -4900318.366 -4521042.143 10 0 60054 8100.00000 0 24951106.104 -5084418.072 -1339738.315 10 0 60054 9000.00000 0 24894081.540 -5210104.394 1867622.759 10 0 60054 9900.00000 0 24450387.568 -5223874.615 5038676.737 10 0 60054 10800.00000 0 23644879.396 -5076363.568 8111809.144 10 0 60054 11700.00000 0 22513960.343 -4724677.753 11027355.497 10 0 60054 12600.00000 0 21104031.524 -4134456.311 13728759.382 10 0 60054 13500.00000 0 19469544.073 -3281571.555 16163665.919 10 0 60054 14400.00000 0 17670736.634 -2153397.250 18284929.726 10 0 60054 15300.00000 0 15771153.648 -749591.327 20051518.507 10 0 60054 16200.00000 0 13835048.448 917639.784 21429295.837 10 0 60054 17100.00000 0 11924779.370 2823806.352 22391669.244 10 0 60054 18000.00000 0 10098306.766 4932919.215 22920092.412 10 0 60054 18900.00000 0 8406894.062 7198760.141 23004413.088 10 0 60054 19800.00000 0 6893107.114 9566586.608 22643061.104 10 0 60054 20700.00000 0 5589193.566 11975201.187 21843073.644 10 0 60054 21600.00000 0 4515908.042 14359300.831 20619957.682 10 0 60054 22500.00000 0 3681830.596 16652010.024 18997392.238 10 0 60054 23400.00000 0 3083205.640 18787493.970 17006775.756 10 0 60054 24300.00000 0 2704307.093 20703544.669 14686626.629 10 0 60054 25200.00000 0 2518313.916 22344033.478 12081847.402 10 0 60054 26100.00000 0 2488659.056 23661128.896 9242865.822 10 0 60054 27000.00000 0 2570795.150 24617187.615 6224668.233 10 0 60054 27900.00000 0 2714302.847 25186240.044 3085743.007 10 0 60054 28800.00000 0 2865253.091 25355007.946 -113046.236 10 0 60054 29700.00000 0 2968723.768 25123411.113 -3309636.335 10 0 60054 30600.00000 0 2971364.323 24504541.101 -6441966.659 10 0 60054 31500.00000 0 2823899.532 23524102.305 -9449184.162 10 0 60054 32400.00000 0 2483465.881 22219342.971 -12272827.814 10 0 60054 33300.00000 0 1915680.691 20637520.185 -14857969.024 10 0 60054 34200.00000 0 1096355.167 18833962.608 -17154285.359 10 0 60054 35100.00000 0 12777.386 16869811.729 -19117046.204 10 0 60054 36000.00000 0 -1335490.808 14809535.990 -20707990.666 10 0 60054 36900.00000 0 -2936338.535 12718321.865 -21896080.129 10 0 60054 37800.00000 0 -4765365.849 10659451.131 -22658110.389 10 0 60054 38700.00000 0 -6786669.949 8691774.208 -22979171.003 10 0 60054 39600.00000 0 -8954126.364 6867385.427 -22852942.489 10 0 60054 40500.00000 0 -11213112.840 5229597.581 -22281825.197 10 0 60054 41400.00000 0 -13502604.905 3811300.464 -21276896.930 10 0 60054 42300.00000 0 -15757556.040 2633771.936 -19857699.749 10 0 60054 43200.00000 0 -17911463.260 1705990.890 -18051859.829 10 0 60054 44100.00000 0 -19899010.755 1024480.196 -15894547.541 10 0 60054 45000.00000 0 -21658680.635 573685.258 -13427788.260 10 0 60054 45900.00000 0 -23135221.080 326870.963 -10699637.492 10 0 60054 46800.00000 0 -24281867.992 247497.706 -7763236.812 10 0 60054 47700.00000 0 -25062226.674 291016.758 -4675769.657 10 0 60054 48600.00000 0 -25451734.452 407007.374 -1497338.226 10 0 60054 49500.00000 0 -25438643.019 541563.470 1710215.704 10 0 60054 50400.00000 0 -25024479.798 639827.288 4884521.929 10 0 60054 51300.00000 0 -24223969.777 648561.357 7963900.445 10 0 60054 52200.00000 0 -23064422.250 518648.823 10888563.048 10 0 60054 53100.00000 0 -21584609.437 207415.594 13601774.024 10 0 60054 54000.00000 0 -19833185.271 -319324.243 16050947.292 10 0 60054 54900.00000 0 -17866711.672 -1085586.201 18188659.020 10 0 60054 55800.00000 0 -15747375.682 -2103967.167 19973556.728 10 0 60054 56700.00000 0 -13540493.173 -3374883.515 21371148.351 10 0 60054 57600.00000 0 -11311903.159 -4886327.442 22354457.218 10 0 60054 58500.00000 0 -9125360.657 -6614151.724 22904531.646 10 0 60054 59400.00000 0 -7040035.552 -8522871.336 23010800.613 10 0 60054 60300.00000 0 -5108220.006 -10566949.028 22671269.742 10 0 60054 61200.00000 0 -3373338.106 -12692512.195 21892554.635 10 0 60054 62100.00000 0 -1868338.704 -14839430.690 20689751.308 10 0 60054 63000.00000 0 -614536.625 -16943670.509 19086146.246 10 0 60054 63900.00000 0 379051.039 -18939826.767 17112771.252 10 0 60054 64800.00000 0 1115847.096 -20763731.961 14807810.971 10 0 60054 65700.00000 0 1611329.906 -22355032.053 12215873.514 10 0 60054 66600.00000 0 1892139.134 -23659623.894 9387137.208 10 0 60054 67500.00000 0 1994709.419 -24631852.813 6376388.870 10 0 60054 68400.00000 0 1963489.444 -25236378.723 3241971.197 10 0 60054 69300.00000 0 1848821.296 -25449632.395 44658.912 10 0 60054 70200.00000 0 1704569.496 -25260800.365 -3153515.093 10 0 60054 71100.00000 0 1585599.823 -24672296.295 -6290461.125 10 0 60054 72000.00000 0 1545214.733 -23699697.997 -9305238.203 10 0 60054 72900.00000 0 1632654.274 -22371151.623 -12139240.092 10 0 60054 73800.00000 0 1890769.020 -20726266.913 -14737338.457 10 0 60054 74700.00000 0 2353964.459 -18814548.853 -17048960.382 10 0 60054 75600.00000 0 3046505.132 -16693430.627 -19029078.828 10 0 60054 76500.00000 0 3981251.678 -14425989.649 -20639096.238 10 0 60054 77400.00000 0 5158885.876 -12078441.820 -21847603.598 10 0 60054 78300.00000 0 6567658.113 -9717518.609 -22630999.757 10 0 60054 79200.00000 0 8183669.795 -7407836.440 -22973958.500 10 0 60054 80100.00000 0 9971680.465 -5209368.319 -22869733.876 10 0 60054 81000.00000 0 11886407.263 -3175123.306 -22320297.428 10 0 60054 81900.00000 0 13874263.376 -1349130.693 -21336304.231 10 0 60054 82800.00000 0 15875463.420 235187.015 -19936888.032 10 0 60054 83700.00000 0 17826407.926 1556184.684 -18149289.146 10 0 60054 84600.00000 0 19662247.071 2604660.326 -16008322.158 10 0 60054 85500.00000 0 21319515.913 3383989.096 -13555693.746 99